This is the latest recevied weather packets stored in our database for station/object s59zo-6. If no packets are shown the sender has not sent any weather packets the latest 10 day(s).
| Time | Temp. | Humidity | Pressure | Rain* | Wind** | Luminosity | Snow |
|---|---|---|---|---|---|---|---|
| 1787410204 | 21.11° C | 65% | 1020.6 hPa | 0 mm | - | - | - |
| 1787409905 | 21.67° C | 66% | 1020.6 hPa | 0 mm | - | - | - |
| 1787409605 | 21.11° C | 67% | 1020.8 hPa | 0 mm | - | - | - |
| 1787409304 | 21.11° C | 68% | 1020.7 hPa | 0 mm | - | - | - |
| 1787409005 | 20.56° C | 69% | 1020.4 hPa | 0 mm | - | - | - |
| 1787408704 | 20° C | 70% | 1020.5 hPa | 0 mm | - | - | - |
| 1787408404 | 20.56° C | 70% | 1020.4 hPa | 0 mm | - | - | - |
| 1787408105 | 20° C | 67% | 1020.4 hPa | 0 mm | - | - | - |
| 1787407805 | 21.11° C | 66% | 1020.7 hPa | 0 mm | - | - | - |
| 1787407504 | 20.56° C | 70% | 1020.6 hPa | 0 mm | - | - | - |
| 1787407205 | 20.56° C | 70% | 1020.6 hPa | 0 mm | - | - | - |
| 1787406904 | 20.56° C | 70% | 1020.6 hPa | 0 mm | - | - | - |
| 1787406605 | 20.56° C | 70% | 1020.7 hPa | 0 mm | - | - | - |
| 1787406305 | 20.56° C | 70% | 1020.7 hPa | 0 mm | - | - | - |
| 1787406004 | 20.56° C | 70% | 1020.6 hPa | 0 mm | - | - | - |
| 1787405705 | 20.56° C | 71% | 1020.4 hPa | 0 mm | - | - | - |
| 1787405405 | 20° C | 71% | 1020.4 hPa | 0 mm | - | - | - |
| 1787405104 | 20° C | 71% | 1020.5 hPa | 0 mm | - | - | - |
| 1787404805 | 20° C | 73% | 1020.5 hPa | 0 mm | - | - | - |
| 1787404504 | 19.44° C | 73% | 1020.6 hPa | 0 mm | - | - | - |
| 1787404204 | 19.44° C | 74% | 1020.6 hPa | 0 mm | - | - | - |
| 1787403904 | 19.44° C | 75% | 1020.6 hPa | 0 mm | - | - | - |
| 1787403605 | 18.89° C | 75% | 1020.5 hPa | 0 mm | - | - | - |
| 1787403304 | 18.89° C | 76% | 1020.5 hPa | 0 mm | - | - | - |
| 1787403004 | 18.89° C | 76% | 1020.4 hPa | 0 mm | - | - | - |
* Rain latest hour (hover to see other rain measurements)
** Current wind speed in m/s (hover to see current wind gust speed)